GFSFLT1_prec_precacc6_111.txt.gz
Total_Precipitation_Accumulation
0.00 0.00 0.00 0.00 0.00 0.00 0.00 0.00 0.00 0.00 0.00 0.00 0.00 0.00 0.00 0.00 0.00 0.00 0.00 0.00 0.00 0.01 0.01 0.02 0.03 0.03 0.01 0.01 0.01 0.03 0.10 0.21
0.00 0.00 0.00 0.00 0.00 0.00 0.00 0.00 0.00 0.00 0.00 0.00 0.00 0.00 0.00 0.00 0.00 0.00 0.00 0.00 0.00 0.01 0.02 0.02 0.01 0.01 0.01 0.00 0.01 0.09 0.22 0.26
0.00 0.00 0.00 0.00 0.00 0.00 0.00 0.00 0.00 0.00 0.00 0.00 0.00 0.00 0.00 0.00 0.00 0.00 0.00 0.00 0.00 0.01 0.02 0.00 0.00 0.00 0.00 0.01 0.04 0.17 0.30 0.37
0.00 0.00 0.00 0.00 0.00 0.00 0.00 0.00 0.00 0.00 0.00 0.00 0.00 0.00 0.00 0.00 0.00 0.00 0.00 0.00 0.00 0.01 0.02 0.00 0.00 0.00 0.00 0.00 0.02 0.17 0.31 0.47
0.00 0.00 0.00 0.00 0.00 0.00 0.00 0.00 0.00 0.00 0.00 0.00 0.00 0.00 0.00 0.00 0.00 0.00 0.00 0.00 0.00 0.01 0.02 0.00 0.00 0.00 0.00 0.00 0.00 0.06 0.26 0.39
0.00 0.00 0.00 0.00 0.00 0.00 0.00 0.02 0.03 0.00 0.00 0.00 0.00 0.00 0.00 0.00 0.00 0.00 0.00 0.00 0.00 0.01 0.01 0.00 0.00 0.00 0.00 0.00 0.00 0.02 0.15 0.25
0.00 0.00 0.00 0.00 0.00 0.00 0.00 0.00 0.03 0.05 0.01 0.00 0.00 0.00 0.00 0.00 0.00 0.00 0.00 0.00 0.00 0.00 0.01 0.01 0.00 0.00 0.00 0.00 0.00 0.00 0.03 0.13
0.00 0.00 0.00 0.00 0.00 0.00 0.00 0.00 0.00 0.02 0.01 0.00 0.00 0.00 0.00 0.00 0.00 0.00 0.00 0.00 0.00 0.00 0.01 0.01 0.00 0.00 0.00 0.00 0.01 0.00 0.00 0.03
0.00 0.00 0.00 0.00 0.00 0.00 0.00 0.00 0.00 0.00 0.01 0.00 0.00 0.01 0.01 0.00 0.00 0.00 0.00 0.00 0.00 0.00 0.01 0.01 0.01 0.00 0.00 0.00 0.01 0.02 0.03 0.03
0.00 0.00 0.00 0.00 0.00 0.00 0.00 0.00 0.00 0.00 0.00 0.00 0.01 0.04 0.03 0.01 0.00 0.00 0.00 0.00 0.00 0.00 0.00 0.01 0.01 0.00 0.00 0.00 0.00 0.01 0.02 0.06
0.00 0.00 0.00 0.00 0.00 0.00 0.00 0.00 0.00 0.00 0.00 0.00 0.04 0.05 0.02 0.03 0.00 0.00 0.00 0.00 0.00 0.00 0.00 0.01 0.02 0.00 0.00 0.00 0.00 0.00 0.03 0.07
0.00 0.00 0.00 0.00 0.00 0.01 0.02 0.01 0.01 0.01 0.01 0.06 0.08 0.04 0.05 0.08 0.03 0.00 0.00 0.00 0.00 0.00 0.00 0.00 0.01 0.01 0.00 0.00 0.00 0.00 0.01 0.01
0.00 0.00 0.00 0.00 0.00 0.04 0.07 0.05 0.06 0.07 0.09 0.13 0.11 0.12 0.17 0.14 0.05 0.00 0.00 0.02 0.03 0.00 0.00 0.00 0.01 0.01 0.01 0.01 0.00 0.00 0.00 0.01
0.00 0.00 0.00 0.00 0.01 0.03 0.04 0.06 0.05 0.03 0.06 0.14 0.14 0.17 0.23 0.18 0.10 0.02 0.06 0.08 0.04 0.00 0.00 0.00 0.00 0.00 0.01 0.01 0.01 0.01 0.00 0.00
0.00 0.00 0.00 0.01 0.02 0.03 0.08 0.08 0.07 0.05 0.03 0.03 0.07 0.12 0.18 0.20 0.14 0.04 0.09 0.09 0.05 0.01 0.00 0.00 0.00 0.00 0.01 0.01 0.01 0.02 0.01 0.01
0.00 0.00 0.00 0.03 0.04 0.07 0.09 0.09 0.10 0.08 0.09 0.09 0.07 0.09 0.17 0.22 0.11 0.07 0.07 0.06 0.04 0.01 0.01 0.01 0.01 0.00 0.01 0.01 0.01 0.01 0.01 0.01
0.01 0.00 0.01 0.09 0.09 0.11 0.12 0.12 0.11 0.11 0.11 0.12 0.16 0.17 0.24 0.28 0.14 0.10 0.04 0.02 0.02 0.01 0.01 0.01 0.01 0.00 0.02 0.01 0.01 0.01 0.01 0.00
0.04 0.06 0.15 0.30 0.30 0.27 0.25 0.22 0.17 0.13 0.12 0.13 0.15 0.18 0.19 0.22 0.14 0.09 0.05 0.02 0.01 0.02 0.01 0.01 0.01 0.00 0.01 0.01 0.01 0.01 0.03 0.03
0.08 0.10 0.20 0.35 0.43 0.43 0.38 0.34 0.30 0.22 0.16 0.16 0.16 0.20 0.29 0.27 0.16 0.10 0.07 0.05 0.02 0.01 0.01 0.01 0.01 0.02 0.02 0.01 0.01 0.01 0.02 0.02

GFSFLT1_prec_precacc6_114.txt.gz
Total_Precipitation_Accumulation
0.00 0.00 0.00 0.00 0.00 0.00 0.00 0.00 0.00 0.00 0.00 0.01 0.00 0.00 0.00 0.00 0.00 0.00 0.00 0.00 0.00 0.00 0.00 0.00 0.00 0.01 0.01 0.01 0.00 0.00 0.00 0.01
0.00 0.00 0.00 0.00 0.00 0.00 0.00 0.00 0.00 0.00 0.00 0.01 0.00 0.00 0.00 0.00 0.00 0.00 0.00 0.00 0.00 0.00 0.00 0.00 0.00 0.01 0.01 0.01 0.01 0.02 0.02 0.02
0.00 0.00 0.00 0.00 0.00 0.00 0.00 0.00 0.00 0.00 0.00 0.01 0.04 0.01 0.00 0.00 0.00 0.00 0.00 0.00 0.00 0.00 0.00 0.00 0.00 0.00 0.01 0.01 0.02 0.02 0.03 0.07
0.00 0.00 0.00 0.00 0.00 0.00 0.00 0.00 0.00 0.00 0.00 0.06 0.08 0.06 0.03 0.01 0.00 0.00 0.00 0.00 0.00 0.00 0.00 0.00 0.00 0.00 0.00 0.00 0.01 0.01 0.01 0.10
0.00 0.00 0.00 0.00 0.00 0.00 0.00 0.00 0.00 0.00 0.00 0.00 0.01 0.00 0.00 0.00 0.00 0.00 0.00 0.00 0.00 0.00 0.00 0.00 0.00 0.00 0.00 0.00 0.00 0.00 0.02 0.16
0.00 0.00 0.00 0.00 0.00 0.00 0.00 0.03 0.12 0.11 0.08 0.04 0.01 0.01 0.00 0.00 0.00 0.00 0.00 0.00 0.00 0.00 0.00 0.00 0.00 0.00 0.00 0.00 0.00 0.00 0.01 0.07
0.00 0.00 0.00 0.00 0.00 0.00 0.00 0.00 0.04 0.16 0.13 0.14 0.12 0.07 0.02 0.01 0.00 0.00 0.00 0.00 0.00 0.00 0.00 0.00 0.00 0.00 0.00 0.00 0.00 0.00 0.00 0.04
0.00 0.00 0.00 0.00 0.00 0.00 0.00 0.00 0.00 0.02 0.03 0.02 0.02 0.02 0.03 0.01 0.00 0.00 0.00 0.02 0.00 0.00 0.00 0.00 0.00 0.00 0.00 0.00 0.00 0.00 0.00 0.01
0.00 0.00 0.00 0.00 0.00 0.00 0.00 0.00 0.00 0.00 0.01 0.00 0.00 0.01 0.03 0.01 0.00 0.00 0.00 0.01 0.01 0.00 0.00 0.00 0.00 0.00 0.00 0.00 0.00 0.00 0.00 0.00
0.00 0.00 0.00 0.00 0.00 0.00 0.00 0.00 0.00 0.00 0.00 0.00 0.01 0.04 0.05 0.02 0.01 0.00 0.01 0.01 0.00 0.00 0.00 0.00 0.00 0.00 0.00 0.00 0.00 0.00 0.00 0.00
0.00 0.00 0.00 0.00 0.00 0.00 0.00 0.00 0.00 0.00 0.00 0.00 0.04 0.05 0.03 0.06 0.02 0.00 0.01 0.01 0.00 0.00 0.00 0.00 0.00 0.00 0.00 0.00 0.00 0.00 0.00 0.00
0.00 0.00 0.00 0.00 0.00 0.00 0.01 0.01 0.01 0.01 0.01 0.06 0.10 0.06 0.09 0.14 0.08 0.02 0.01 0.02 0.02 0.02 0.00 0.00 0.01 0.01 0.00 0.00 0.00 0.00 0.00 0.01
0.00 0.00 0.00 0.00 0.00 0.00 0.03 0.03 0.05 0.07 0.09 0.15 0.17 0.19 0.26 0.22 0.13 0.05 0.03 0.04 0.06 0.02 0.01 0.00 0.01 0.01 0.01 0.00 0.01 0.00 0.00 0.01
0.00 0.00 0.00 0.00 0.00 0.00 0.00 0.03 0.04 0.02 0.06 0.16 0.21 0.24 0.31 0.33 0.24 0.11 0.11 0.15 0.08 0.03 0.02 0.02 0.00 0.01 0.01 0.01 0.01 0.01 0.00 0.00
0.00 0.00 0.00 0.00 0.00 0.01 0.02 0.02 0.03 0.03 0.02 0.03 0.09 0.16 0.28 0.32 0.25 0.18 0.19 0.17 0.09 0.04 0.01 0.01 0.01 0.01 0.02 0.02 0.03 0.03 0.01 0.00
0.00 0.00 0.00 0.00 0.00 0.02 0.02 0.04 0.05 0.05 0.05 0.04 0.05 0.08 0.20 0.28 0.22 0.18 0.16 0.14 0.10 0.06 0.03 0.02 0.01 0.01 0.03 0.03 0.03 0.02 0.02 0.01
0.01 0.00 0.00 0.00 0.00 0.02 0.05 0.05 0.06 0.06 0.05 0.06 0.10 0.12 0.21 0.31 0.23 0.25 0.18 0.12 0.06 0.04 0.04 0.02 0.01 0.01 0.03 0.03 0.03 0.02 0.02 0.01
0.03 0.03 0.02 0.01 0.02 0.05 0.13 0.13 0.13 0.10 0.08 0.06 0.07 0.13 0.23 0.29 0.27 0.24 0.21 0.14 0.06 0.03 0.03 0.02 0.00 0.01 0.02 0.02 0.02 0.02 0.02 0.01
0.03 0.02 0.01 0.01 0.03 0.09 0.16 0.22 0.28 0.27 0.18 0.11 0.09 0.17 0.30 0.44 0.38 0.31 0.27 0.20 0.07 0.03 0.02 0.01 0.01 0.03 0.03 0.02 0.02 0.01 0.03 0.02

GFSFLT1_prec_precacc6_117.txt.gz
Total_Precipitation_Accumulation
0.00 0.00 0.00 0.00 0.00 0.00 0.00 0.00 0.00 0.00 0.00 0.01 0.00 0.00 0.00 0.00 0.00 0.00 0.00 0.00 0.00 0.00 0.00 0.00 0.00 0.00 0.00 0.00 0.00 0.00 0.00 0.01
0.00 0.00 0.00 0.00 0.00 0.00 0.00 0.00 0.00 0.00 0.00 0.01 0.01 0.00 0.00 0.00 0.00 0.00 0.00 0.00 0.00 0.00 0.00 0.00 0.00 0.00 0.00 0.01 0.02 0.02 0.02 0.02
0.00 0.00 0.00 0.00 0.00 0.00 0.00 0.00 0.00 0.00 0.00 0.01 0.05 0.03 0.03 0.06 0.04 0.00 0.00 0.00 0.00 0.00 0.00 0.00 0.00 0.00 0.01 0.01 0.02 0.04 0.05 0.04
0.00 0.00 0.00 0.00 0.00 0.00 0.00 0.00 0.00 0.00 0.00 0.06 0.09 0.10 0.14 0.14 0.04 0.00 0.00 0.00 0.00 0.00 0.00 0.00 0.00 0.00 0.00 0.00 0.01 0.02 0.02 0.03
0.00 0.00 0.00 0.00 0.00 0.00 0.00 0.00 0.00 0.01 0.03 0.01 0.02 0.01 0.00 0.00 0.00 0.00 0.00 0.00 0.00 0.00 0.00 0.00 0.00 0.00 0.00 0.00 0.01 0.01 0.01 0.02
0.00 0.00 0.00 0.00 0.00 0.00 0.00 0.01 0.09 0.12 0.10 0.07 0.06 0.08 0.06 0.02 0.00 0.00 0.00 0.01 0.00 0.00 0.00 0.00 0.00 0.00 0.00 0.00 0.00 0.01 0.01 0.01
0.00 0.00 0.00 0.00 0.00 0.00 0.00 0.00 0.01 0.11 0.15 0.18 0.18 0.15 0.11 0.10 0.04 0.03 0.02 0.04 0.02 0.00 0.00 0.00 0.00 0.00 0.00 0.00 0.00 0.00 0.00 0.01
0.00 0.00 0.00 0.00 0.00 0.00 0.00 0.00 0.00 0.01 0.03 0.06 0.04 0.05 0.06 0.04 0.05 0.06 0.05 0.04 0.01 0.01 0.01 0.00 0.00 0.00 0.00 0.00 0.00 0.00 0.00 0.01
0.00 0.00 0.00 0.00 0.00 0.00 0.00 0.00 0.00 0.00 0.00 0.01 0.00 0.02 0.04 0.03 0.01 0.02 0.01 0.01 0.02 0.00 0.01 0.01 0.00 0.00 0.00 0.00 0.00 0.00 0.00 0.00
0.00 0.00 0.00 0.00 0.00 0.00 0.00 0.00 0.00 0.00 0.00 0.00 0.01 0.00 0.03 0.03 0.03 0.02 0.02 0.02 0.02 0.01 0.00 0.00 0.01 0.01 0.00 0.00 0.01 0.01 0.01 0.00
0.00 0.00 0.00 0.00 0.00 0.00 0.00 0.00 0.00 0.00 0.00 0.00 0.01 0.00 0.02 0.05 0.06 0.01 0.01 0.04 0.05 0.02 0.01 0.00 0.01 0.00 0.00 0.00 0.00 0.01 0.01 0.01
0.00 0.00 0.00 0.00 0.00 0.00 0.00 0.00 0.01 0.01 0.01 0.02 0.03 0.02 0.05 0.07 0.07 0.05 0.06 0.09 0.10 0.07 0.02 0.01 0.00 0.00 0.00 0.00 0.01 0.01 0.01 0.00
0.00 0.00 0.00 0.00 0.00 0.00 0.00 0.00 0.01 0.01 0.02 0.06 0.08 0.10 0.13 0.12 0.13 0.10 0.09 0.10 0.12 0.08 0.06 0.03 0.00 0.00 0.00 0.00 0.01 0.01 0.01 0.00
0.00 0.00 0.00 0.00 0.00 0.00 0.00 0.00 0.01 0.00 0.00 0.03 0.09 0.11 0.16 0.21 0.24 0.17 0.13 0.15 0.17 0.14 0.10 0.07 0.03 0.01 0.01 0.01 0.01 0.01 0.01 0.01
0.00 0.00 0.00 0.00 0.00 0.00 0.00 0.00 0.00 0.00 0.00 0.00 0.05 0.10 0.17 0.22 0.29 0.26 0.22 0.21 0.19 0.17 0.12 0.10 0.10 0.04 0.02 0.02 0.03 0.02 0.01 0.01
0.00 0.00 0.00 0.00 0.00 0.00 0.00 0.01 0.02 0.02 0.02 0.02 0.01 0.03 0.08 0.16 0.27 0.25 0.20 0.21 0.19 0.17 0.11 0.06 0.03 0.02 0.03 0.04 0.03 0.02 0.02 0.02
0.00 0.00 0.00 0.00 0.00 0.00 0.00 0.01 0.02 0.03 0.04 0.03 0.03 0.03 0.03 0.10 0.16 0.22 0.20 0.19 0.20 0.21 0.16 0.10 0.03 0.02 0.03 0.03 0.03 0.03 0.03 0.02
0.00 0.01 0.01 0.01 0.01 0.00 0.00 0.01 0.04 0.05 0.03 0.02 0.02 0.03 0.10 0.12 0.20 0.28 0.29 0.29 0.30 0.25 0.18 0.10 0.01 0.01 0.02 0.02 0.02 0.01 0.02 0.02
0.00 0.00 0.00 0.00 0.00 0.00 0.00 0.01 0.08 0.15 0.13 0.08 0.06 0.07 0.12 0.25 0.28 0.29 0.40 0.43 0.34 0.33 0.27 0.11 0.04 0.02 0.02 0.02 0.03 0.00 0.01 0.02

GFSFLT1_prec_precacc6_123.txt.gz
Total_Precipitation_Accumulation
0.00 0.00 0.00 0.00 0.00 0.00 0.00 0.00 0.00 0.00 0.00 0.00 0.01 0.01 0.01 0.01 0.00 0.00 0.00 0.00 0.00 0.00 0.00 0.00 0.00 0.00 0.00 0.00 0.00 0.00 0.00 0.00
0.00 0.00 0.00 0.00 0.00 0.00 0.00 0.00 0.00 0.00 0.00 0.00 0.00 0.00 0.01 0.02 0.00 0.00 0.00 0.00 0.00 0.00 0.00 0.00 0.00 0.00 0.00 0.00 0.01 0.01 0.01 0.00
0.00 0.00 0.00 0.00 0.00 0.00 0.00 0.00 0.00 0.01 0.00 0.00 0.01 0.01 0.00 0.02 0.01 0.00 0.00 0.00 0.00 0.00 0.00 0.00 0.00 0.00 0.00 0.01 0.01 0.01 0.02 0.03
0.00 0.00 0.00 0.00 0.00 0.00 0.00 0.00 0.00 0.00 0.00 0.01 0.04 0.02 0.01 0.01 0.02 0.01 0.00 0.01 0.00 0.00 0.00 0.00 0.00 0.00 0.00 0.00 0.00 0.01 0.01 0.02
0.00 0.00 0.00 0.00 0.00 0.00 0.00 0.00 0.00 0.00 0.00 0.00 0.01 0.00 0.00 0.01 0.01 0.02 0.05 0.05 0.02 0.01 0.00 0.00 0.00 0.00 0.00 0.00 0.00 0.00 0.00 0.01
0.00 0.00 0.00 0.00 0.00 0.00 0.00 0.00 0.00 0.00 0.00 0.00 0.00 0.00 0.01 0.02 0.01 0.01 0.05 0.10 0.16 0.08 0.06 0.04 0.02 0.02 0.01 0.00 0.00 0.00 0.01 0.01
0.00 0.00 0.00 0.00 0.00 0.00 0.00 0.00 0.00 0.00 0.00 0.01 0.01 0.02 0.03 0.00 0.00 0.00 0.06 0.18 0.17 0.16 0.17 0.17 0.17 0.12 0.05 0.01 0.00 0.00 0.00 0.01
0.01 0.00 0.00 0.00 0.00 0.00 0.00 0.00 0.01 0.00 0.01 0.01 0.02 0.02 0.01 0.01 0.00 0.02 0.11 0.22 0.13 0.07 0.09 0.09 0.05 0.03 0.02 0.01 0.01 0.01 0.00 0.00
0.01 0.00 0.00 0.00 0.00 0.00 0.00 0.01 0.02 0.02 0.02 0.03 0.02 0.03 0.03 0.02 0.01 0.04 0.07 0.18 0.11 0.09 0.07 0.05 0.02 0.03 0.03 0.03 0.04 0.01 0.01 0.01
0.00 0.01 0.01 0.01 0.01 0.02 0.01 0.02 0.01 0.01 0.01 0.02 0.03 0.03 0.02 0.02 0.04 0.08 0.03 0.04 0.11 0.13 0.06 0.04 0.03 0.05 0.06 0.05 0.04 0.03 0.01 0.01
0.04 0.01 0.00 0.01 0.01 0.01 0.01 0.01 0.00 0.01 0.01 0.00 0.00 0.00 0.00 0.00 0.02 0.03 0.04 0.10 0.12 0.10 0.07 0.04 0.02 0.03 0.06 0.04 0.02 0.03 0.01 0.02
0.23 0.10 0.01 0.00 0.01 0.01 0.00 0.00 0.00 0.00 0.00 0.00 0.00 0.00 0.00 0.00 0.00 0.02 0.06 0.08 0.13 0.11 0.12 0.09 0.04 0.05 0.06 0.04 0.02 0.02 0.01 0.02
0.42 0.31 0.22 0.02 0.01 0.00 0.00 0.00 0.01 0.01 0.01 0.01 0.00 0.00 0.00 0.01 0.01 0.02 0.04 0.03 0.05 0.12 0.15 0.10 0.06 0.06 0.05 0.05 0.02 0.02 0.02 0.02
0.33 0.21 0.19 0.08 0.02 0.00 0.00 0.01 0.00 0.00 0.00 0.01 0.01 0.02 0.01 0.02 0.02 0.03 0.05 0.05 0.06 0.09 0.10 0.08 0.07 0.07 0.06 0.05 0.07 0.03 0.03 0.02
0.13 0.22 0.18 0.14 0.02 0.00 0.00 0.00 0.00 0.00 0.00 0.00 0.00 0.00 0.02 0.02 0.02 0.03 0.05 0.06 0.08 0.10 0.12 0.12 0.13 0.13 0.09 0.09 0.06 0.04 0.03 0.03
0.03 0.02 0.02 0.04 0.01 0.00 0.00 0.00 0.00 0.00 0.00 0.00 0.00 0.00 0.00 0.01 0.04 0.05 0.07 0.09 0.11 0.10 0.10 0.12 0.17 0.19 0.19 0.11 0.06 0.04 0.05 0.04
0.00 0.00 0.01 0.01 0.01 0.00 0.00 0.00 0.00 0.00 0.00 0.00 0.00 0.00 0.00 0.00 0.00 0.00 0.02 0.03 0.06 0.15 0.29 0.39 0.39 0.25 0.22 0.12 0.08 0.03 0.02 0.04
0.01 0.02 0.02 0.02 0.01 0.00 0.00 0.00 0.00 0.00 0.00 0.00 0.00 0.00 0.00 0.00 0.00 0.00 0.00 0.01 0.02 0.03 0.11 0.27 0.59 0.70 0.69 0.63 0.49 0.32 0.25 0.20
0.00 0.01 0.01 0.01 0.00 0.00 0.00 0.00 0.00 0.00 0.00 0.00 0.00 0.00 0.00 0.00 0.00 0.00 0.00 0.01 0.05 0.09 0.18 0.24 0.21 0.28 0.40 0.49 0.57 0.63 0.69 0.55

GFSFLT1_prec_precacc6_126.txt.gz
Total_Precipitation_Accumulation
0.00 0.00 0.00 0.00 0.00 0.00 0.00 0.00 0.00 0.00 0.00 0.00 0.01 0.00 0.01 0.01 0.00 0.00 0.00 0.00 0.00 0.00 0.00 0.00 0.00 0.00 0.00 0.00 0.00 0.00 0.00 0.00
0.00 0.00 0.00 0.00 0.00 0.00 0.00 0.00 0.00 0.00 0.00 0.00 0.00 0.00 0.01 0.01 0.00 0.00 0.00 0.00 0.00 0.00 0.00 0.00 0.00 0.00 0.00 0.00 0.00 0.00 0.00 0.00
0.00 0.00 0.00 0.00 0.00 0.00 0.00 0.00 0.00 0.01 0.00 0.00 0.01 0.01 0.00 0.02 0.01 0.00 0.00 0.00 0.00 0.00 0.00 0.00 0.00 0.00 0.00 0.00 0.01 0.00 0.01 0.01
0.00 0.00 0.00 0.00 0.00 0.00 0.00 0.00 0.00 0.01 0.00 0.01 0.05 0.01 0.00 0.01 0.00 0.00 0.01 0.01 0.00 0.00 0.00 0.00 0.00 0.00 0.00 0.00 0.00 0.00 0.00 0.00
0.00 0.00 0.00 0.00 0.00 0.00 0.00 0.00 0.00 0.01 0.04 0.07 0.03 0.00 0.00 0.00 0.00 0.02 0.04 0.04 0.03 0.01 0.00 0.00 0.00 0.00 0.00 0.00 0.00 0.00 0.01 0.01
0.00 0.00 0.00 0.00 0.00 0.00 0.00 0.00 0.00 0.00 0.05 0.23 0.14 0.03 0.00 0.00 0.00 0.00 0.03 0.04 0.10 0.08 0.06 0.05 0.04 0.04 0.04 0.01 0.00 0.00 0.01 0.01
0.03 0.02 0.01 0.01 0.02 0.01 0.00 0.00 0.00 0.00 0.00 0.03 0.20 0.14 0.01 0.00 0.00 0.00 0.01 0.05 0.10 0.13 0.18 0.19 0.21 0.22 0.12 0.04 0.01 0.00 0.00 0.01
0.07 0.05 0.03 0.02 0.04 0.05 0.03 0.02 0.01 0.00 0.00 0.00 0.01 0.02 0.01 0.01 0.02 0.01 0.03 0.07 0.02 0.03 0.09 0.15 0.09 0.06 0.03 0.01 0.01 0.00 0.00 0.00
0.09 0.08 0.05 0.02 0.02 0.05 0.02 0.03 0.03 0.02 0.02 0.03 0.02 0.03 0.03 0.03 0.03 0.05 0.07 0.10 0.04 0.09 0.08 0.15 0.15 0.09 0.02 0.03 0.05 0.03 0.01 0.00
0.12 0.10 0.09 0.07 0.05 0.05 0.04 0.04 0.04 0.04 0.04 0.04 0.04 0.04 0.04 0.04 0.03 0.05 0.05 0.05 0.11 0.13 0.07 0.08 0.15 0.11 0.06 0.05 0.05 0.05 0.03 0.02
0.16 0.09 0.07 0.03 0.04 0.04 0.04 0.05 0.05 0.04 0.03 0.02 0.01 0.01 0.00 0.01 0.01 0.03 0.03 0.04 0.09 0.09 0.05 0.08 0.07 0.07 0.06 0.05 0.03 0.03 0.02 0.04
0.46 0.23 0.13 0.06 0.01 0.03 0.03 0.03 0.03 0.01 0.01 0.01 0.00 0.00 0.00 0.00 0.00 0.00 0.01 0.02 0.09 0.09 0.10 0.10 0.05 0.04 0.05 0.06 0.03 0.02 0.02 0.04
0.78 0.59 0.41 0.11 0.02 0.01 0.01 0.01 0.03 0.02 0.01 0.01 0.01 0.00 0.00 0.00 0.00 0.00 0.01 0.01 0.01 0.06 0.12 0.13 0.12 0.08 0.06 0.05 0.03 0.02 0.03 0.06
0.51 0.44 0.49 0.45 0.17 0.06 0.02 0.02 0.02 0.07 0.05 0.01 0.01 0.01 0.00 0.00 0.01 0.01 0.02 0.02 0.03 0.03 0.04 0.06 0.08 0.09 0.09 0.08 0.12 0.09 0.08 0.08
0.19 0.36 0.37 0.40 0.34 0.18 0.09 0.03 0.05 0.03 0.02 0.01 0.00 0.00 0.00 0.00 0.00 0.01 0.02 0.03 0.04 0.05 0.05 0.06 0.06 0.08 0.08 0.09 0.09 0.07 0.08 0.08
0.02 0.03 0.08 0.21 0.20 0.12 0.07 0.03 0.00 0.00 0.00 0.00 0.00 0.00 0.00 0.00 0.00 0.01 0.01 0.02 0.03 0.03 0.05 0.07 0.09 0.11 0.13 0.09 0.05 0.04 0.06 0.07
0.00 0.01 0.00 0.01 0.01 0.01 0.00 0.00 0.00 0.00 0.00 0.00 0.00 0.00 0.00 0.00 0.00 0.00 0.00 0.01 0.02 0.05 0.10 0.18 0.22 0.16 0.17 0.07 0.06 0.03 0.03 0.05
0.01 0.01 0.01 0.01 0.01 0.01 0.00 0.00 0.00 0.00 0.00 0.00 0.00 0.00 0.00 0.00 0.00 0.00 0.00 0.00 0.00 0.01 0.04 0.12 0.24 0.35 0.47 0.55 0.53 0.41 0.35 0.36
0.01 0.01 0.01 0.01 0.00 0.00 0.00 0.00 0.00 0.00 0.00 0.00 0.00 0.00 0.00 0.00 0.00 0.00 0.00 0.00 0.00 0.00 0.00 0.02 0.03 0.05 0.14 0.37 0.59 0.80 0.91 0.77

GFSFLT1_prec_precacc6_132.txt.gz
Total_Precipitation_Accumulation
0.00 0.00 0.00 0.00 0.00 0.00 0.00 0.00 0.00 0.00 0.03 0.15 0.16 0.15 0.08 0.01 0.00 0.00 0.00 0.00 0.00 0.00 0.00 0.00 0.00 0.00 0.00 0.00 0.00 0.00 0.00 0.00
0.00 0.00 0.00 0.00 0.00 0.00 0.00 0.00 0.00 0.00 0.04 0.14 0.15 0.13 0.09 0.08 0.00 0.00 0.00 0.00 0.00 0.00 0.00 0.00 0.00 0.00 0.00 0.00 0.00 0.00 0.00 0.01
0.00 0.00 0.00 0.00 0.00 0.00 0.00 0.00 0.00 0.00 0.00 0.04 0.12 0.17 0.12 0.03 0.01 0.00 0.00 0.00 0.00 0.00 0.00 0.00 0.00 0.00 0.00 0.00 0.00 0.00 0.01 0.01
0.00 0.00 0.00 0.00 0.00 0.00 0.00 0.00 0.00 0.01 0.01 0.07 0.14 0.16 0.18 0.14 0.09 0.00 0.00 0.00 0.00 0.00 0.00 0.00 0.00 0.00 0.00 0.00 0.00 0.00 0.00 0.01
0.00 0.00 0.00 0.00 0.00 0.00 0.00 0.00 0.00 0.03 0.10 0.24 0.25 0.22 0.23 0.10 0.04 0.01 0.00 0.00 0.00 0.00 0.00 0.00 0.00 0.00 0.00 0.00 0.00 0.00 0.00 0.00
0.01 0.01 0.01 0.00 0.00 0.00 0.00 0.00 0.00 0.00 0.04 0.18 0.33 0.38 0.18 0.10 0.08 0.04 0.00 0.00 0.00 0.00 0.00 0.00 0.00 0.00 0.00 0.00 0.00 0.00 0.00 0.01
0.01 0.02 0.02 0.01 0.02 0.03 0.01 0.01 0.00 0.00 0.01 0.09 0.19 0.65 1.18 1.38 1.06 0.54 0.21 0.14 0.09 0.03 0.04 0.04 0.01 0.01 0.01 0.01 0.02 0.00 0.02 0.02
0.02 0.03 0.04 0.04 0.05 0.08 0.11 0.05 0.03 0.02 0.02 0.05 0.13 0.27 0.58 1.09 1.69 2.30 1.70 1.10 0.84 0.59 0.15 0.06 0.04 0.03 0.04 0.03 0.03 0.02 0.03 0.03
0.03 0.05 0.06 0.09 0.10 0.11 0.19 0.17 0.16 0.08 0.05 0.06 0.13 0.12 0.18 0.47 0.53 0.89 1.23 1.33 1.08 1.22 0.54 0.09 0.08 0.09 0.10 0.09 0.03 0.03 0.01 0.03
0.07 0.08 0.15 0.24 0.19 0.15 0.24 0.27 0.35 0.26 0.16 0.08 0.11 0.12 0.08 0.14 0.23 0.40 0.64 0.56 0.39 0.33 0.18 0.08 0.10 0.12 0.09 0.07 0.08 0.05 0.06 0.04
0.16 0.16 0.25 0.27 0.32 0.21 0.26 0.38 0.48 0.33 0.33 0.21 0.15 0.18 0.12 0.10 0.08 0.11 0.23 0.46 0.46 0.23 0.12 0.08 0.10 0.10 0.07 0.05 0.06 0.06 0.10 0.07
0.29 0.25 0.30 0.49 0.68 0.26 0.29 0.45 0.84 0.46 0.29 0.20 0.10 0.08 0.13 0.09 0.11 0.08 0.11 0.11 0.11 0.06 0.04 0.02 0.05 0.06 0.06 0.04 0.05 0.06 0.10 0.10
0.32 0.31 0.34 0.65 0.35 0.29 0.26 0.25 0.24 0.46 0.16 0.08 0.05 0.01 0.03 0.07 0.06 0.07 0.03 0.03 0.02 0.01 0.01 0.03 0.04 0.03 0.04 0.05 0.05 0.06 0.07 0.07
0.26 0.32 0.32 0.49 0.36 0.41 0.33 0.29 0.14 0.12 0.07 0.11 0.10 0.03 0.02 0.02 0.02 0.02 0.03 0.02 0.01 0.01 0.01 0.01 0.02 0.03 0.04 0.05 0.07 0.06 0.08 0.10
0.07 0.12 0.20 0.46 0.53 0.38 0.37 0.39 0.33 0.16 0.16 0.06 0.09 0.06 0.04 0.03 0.02 0.02 0.01 0.01 0.01 0.02 0.02 0.02 0.03 0.02 0.02 0.02 0.03 0.04 0.07 0.11
0.01 0.00 0.01 0.08 0.21 0.25 0.30 0.23 0.21 0.23 0.23 0.19 0.07 0.03 0.02 0.02 0.01 0.02 0.01 0.02 0.04 0.05 0.06 0.07 0.08 0.07 0.08 0.06 0.05 0.06 0.08 0.11
0.00 0.00 0.00 0.00 0.02 0.05 0.07 0.08 0.03 0.03 0.04 0.05 0.05 0.01 0.00 0.00 0.00 0.00 0.01 0.00 0.01 0.02 0.03 0.07 0.09 0.10 0.16 0.13 0.17 0.18 0.17 0.14
0.00 0.00 0.01 0.00 0.00 0.00 0.00 0.00 0.00 0.01 0.01 0.01 0.00 0.00 0.00 0.00 0.00 0.00 0.00 0.00 0.00 0.00 0.00 0.00 0.02 0.02 0.02 0.02 0.03 0.04 0.08 0.12
0.00 0.00 0.00 0.00 0.00 0.00 0.00 0.00 0.00 0.00 0.00 0.00 0.00 0.00 0.00 0.00 0.00 0.00 0.00 0.00 0.00 0.00 0.00 0.00 0.00 0.00 0.00 0.01 0.03 0.04 0.05 0.08

GFSFLT1_prec_precacc6_135.txt.gz
Total_Precipitation_Accumulation
0.00 0.00 0.00 0.00 0.00 0.00 0.00 0.00 0.00 0.00 0.03 0.13 0.19 0.29 0.26 0.25 0.25 0.17 0.10 0.01 0.00 0.00 0.00 0.00 0.00 0.00 0.00 0.00 0.00 0.00 0.00 0.00
0.00 0.00 0.00 0.00 0.00 0.00 0.00 0.00 0.00 0.00 0.03 0.11 0.14 0.15 0.15 0.15 0.20 0.25 0.21 0.07 0.00 0.00 0.00 0.00 0.00 0.00 0.00 0.00 0.00 0.00 0.00 0.00
0.00 0.00 0.00 0.00 0.00 0.00 0.00 0.00 0.00 0.00 0.00 0.04 0.11 0.17 0.17 0.08 0.08 0.21 0.28 0.15 0.03 0.00 0.00 0.00 0.00 0.00 0.00 0.00 0.00 0.00 0.00 0.00
0.00 0.00 0.00 0.00 0.00 0.00 0.00 0.00 0.00 0.00 0.00 0.06 0.13 0.16 0.18 0.18 0.18 0.08 0.05 0.13 0.03 0.00 0.00 0.00 0.00 0.00 0.00 0.00 0.00 0.00 0.00 0.00
0.00 0.00 0.00 0.00 0.00 0.00 0.00 0.00 0.00 0.00 0.00 0.03 0.13 0.20 0.24 0.10 0.04 0.07 0.06 0.17 0.09 0.00 0.00 0.00 0.00 0.00 0.00 0.00 0.00 0.00 0.00 0.00
0.00 0.00 0.00 0.00 0.00 0.00 0.00 0.00 0.00 0.00 0.00 0.00 0.07 0.15 0.10 0.07 0.12 0.24 0.24 0.19 0.22 0.10 0.02 0.00 0.00 0.00 0.00 0.00 0.00 0.00 0.00 0.00
0.00 0.00 0.00 0.00 0.00 0.00 0.00 0.00 0.00 0.00 0.00 0.01 0.05 0.12 0.27 0.58 0.56 0.58 0.49 0.41 0.42 0.32 0.10 0.05 0.01 0.01 0.02 0.01 0.02 0.01 0.04 0.02
0.00 0.00 0.00 0.01 0.01 0.01 0.02 0.02 0.02 0.01 0.01 0.02 0.05 0.12 0.26 0.41 0.63 1.42 2.14 1.78 1.64 1.58 0.79 0.26 0.15 0.05 0.04 0.06 0.04 0.02 0.05 0.08
0.01 0.01 0.02 0.04 0.06 0.04 0.04 0.05 0.08 0.07 0.06 0.06 0.10 0.11 0.15 0.38 0.48 0.69 1.71 2.36 2.13 2.34 2.41 1.54 0.88 0.45 0.36 0.32 0.16 0.09 0.05 0.11
0.01 0.02 0.05 0.14 0.13 0.08 0.10 0.16 0.33 0.27 0.17 0.13 0.16 0.16 0.14 0.17 0.26 0.62 0.89 0.86 1.04 1.32 1.44 1.10 1.16 1.29 0.88 0.53 0.41 0.39 0.35 0.16
0.01 0.03 0.09 0.12 0.24 0.14 0.21 0.44 0.76 0.52 0.45 0.33 0.28 0.30 0.22 0.16 0.07 0.17 0.47 0.90 0.91 0.77 0.71 0.52 0.50 0.60 0.69 0.35 0.21 0.21 0.27 0.23
0.04 0.04 0.11 0.30 0.56 0.23 0.28 0.65 1.38 1.15 0.73 0.47 0.52 0.29 0.39 0.18 0.12 0.09 0.21 0.31 0.47 0.53 0.48 0.36 0.33 0.24 0.20 0.13 0.06 0.05 0.11 0.14
0.06 0.09 0.10 0.24 0.27 0.37 0.33 0.37 0.40 1.23 0.94 0.61 0.42 0.19 0.16 0.19 0.12 0.10 0.08 0.12 0.12 0.16 0.17 0.24 0.19 0.11 0.08 0.07 0.08 0.07 0.07 0.08
0.06 0.11 0.12 0.19 0.22 0.45 0.50 0.52 0.38 0.38 0.42 0.57 0.32 0.11 0.02 0.02 0.12 0.15 0.07 0.10 0.08 0.06 0.09 0.13 0.11 0.06 0.03 0.05 0.05 0.04 0.06 0.08
0.03 0.05 0.08 0.20 0.27 0.21 0.38 0.59 0.60 0.35 0.26 0.19 0.39 0.21 0.03 0.00 0.00 0.07 0.07 0.02 0.07 0.09 0.05 0.04 0.04 0.03 0.01 0.00 0.01 0.02 0.03 0.05
0.01 0.00 0.00 0.03 0.10 0.10 0.11 0.11 0.23 0.34 0.34 0.28 0.17 0.11 0.03 0.02 0.00 0.00 0.00 0.01 0.03 0.05 0.05 0.04 0.02 0.02 0.02 0.02 0.02 0.02 0.03 0.04
0.00 0.00 0.00 0.00 0.01 0.02 0.06 0.06 0.02 0.02 0.03 0.09 0.14 0.05 0.03 0.01 0.00 0.00 0.00 0.00 0.00 0.01 0.02 0.04 0.07 0.07 0.08 0.07 0.15 0.17 0.18 0.14
0.00 0.00 0.00 0.00 0.00 0.00 0.00 0.01 0.01 0.02 0.02 0.01 0.00 0.01 0.01 0.01 0.00 0.00 0.00 0.00 0.00 0.00 0.00 0.00 0.01 0.01 0.01 0.01 0.01 0.03 0.06 0.11
0.00 0.00 0.00 0.00 0.00 0.00 0.00 0.00 0.00 0.00 0.00 0.00 0.00 0.00 0.00 0.00 0.00 0.00 0.00 0.00 0.00 0.00 0.00 0.00 0.00 0.00 0.00 0.00 0.00 0.00 0.00 0.00

GFSFLT1_prec_precacc6_138.txt.gz
Total_Precipitation_Accumulation
0.00 0.00 0.00 0.00 0.00 0.00 0.00 0.00 0.00 0.00 0.00 0.00 0.03 0.13 0.18 0.24 0.31 0.38 0.45 0.41 0.36 0.16 0.03 0.00 0.00 0.00 0.00 0.00 0.00 0.00 0.00 0.00
0.00 0.00 0.00 0.00 0.00 0.00 0.00 0.00 0.00 0.00 0.00 0.00 0.00 0.02 0.06 0.07 0.20 0.32 0.47 0.57 0.54 0.34 0.15 0.04 0.01 0.00 0.00 0.00 0.00 0.00 0.00 0.00
0.00 0.00 0.00 0.00 0.00 0.00 0.00 0.00 0.00 0.00 0.00 0.00 0.00 0.00 0.05 0.05 0.07 0.22 0.34 0.30 0.41 0.54 0.34 0.08 0.02 0.02 0.00 0.00 0.00 0.00 0.00 0.00
0.00 0.00 0.00 0.00 0.00 0.00 0.00 0.00 0.00 0.00 0.00 0.00 0.00 0.00 0.00 0.04 0.10 0.08 0.05 0.19 0.20 0.31 0.36 0.10 0.02 0.01 0.00 0.00 0.00 0.00 0.00 0.00
0.00 0.00 0.00 0.00 0.00 0.00 0.00 0.00 0.00 0.00 0.00 0.00 0.00 0.00 0.00 0.00 0.01 0.06 0.06 0.20 0.25 0.25 0.24 0.16 0.08 0.02 0.00 0.00 0.00 0.00 0.00 0.00
0.00 0.00 0.00 0.00 0.00 0.00 0.00 0.00 0.00 0.00 0.00 0.00 0.01 0.01 0.01 0.02 0.06 0.21 0.24 0.20 0.27 0.31 0.34 0.33 0.25 0.10 0.03 0.01 0.00 0.00 0.00 0.00
0.00 0.00 0.00 0.00 0.00 0.00 0.00 0.00 0.00 0.00 0.00 0.00 0.02 0.01 0.01 0.02 0.10 0.22 0.31 0.31 0.38 0.49 0.40 0.42 0.76 0.54 0.12 0.04 0.02 0.02 0.03 0.01
0.00 0.00 0.00 0.00 0.00 0.00 0.00 0.00 0.00 0.00 0.00 0.01 0.03 0.02 0.02 0.02 0.07 0.17 0.66 0.73 0.83 1.12 1.38 1.16 1.14 1.14 0.66 0.12 0.08 0.05 0.05 0.07
0.00 0.00 0.00 0.00 0.01 0.01 0.01 0.02 0.02 0.01 0.01 0.03 0.06 0.06 0.04 0.04 0.14 0.12 0.63 1.12 1.10 1.22 2.22 2.75 2.18 1.64 1.60 0.69 0.29 0.15 0.08 0.12
0.00 0.00 0.00 0.01 0.02 0.04 0.07 0.07 0.11 0.12 0.08 0.10 0.09 0.11 0.10 0.08 0.10 0.29 0.32 0.36 0.72 1.08 1.41 1.79 2.31 2.46 1.98 1.36 0.86 0.66 0.56 0.40
0.00 0.00 0.01 0.03 0.06 0.05 0.10 0.22 0.42 0.30 0.24 0.27 0.27 0.22 0.17 0.18 0.11 0.19 0.32 0.48 0.49 0.62 0.84 0.94 0.89 0.93 1.11 1.36 1.40 1.17 1.16 0.93
0.00 0.00 0.01 0.05 0.09 0.07 0.10 0.30 0.65 0.85 0.59 0.49 0.62 0.41 0.52 0.34 0.22 0.17 0.21 0.28 0.43 0.58 0.58 0.62 0.66 0.58 0.56 0.62 0.61 0.79 1.12 1.35
0.01 0.01 0.01 0.01 0.05 0.15 0.15 0.21 0.27 1.03 1.22 0.97 0.81 0.86 1.01 0.50 0.27 0.14 0.09 0.16 0.26 0.24 0.22 0.30 0.40 0.43 0.46 0.43 0.54 0.50 0.42 0.46
0.00 0.00 0.01 0.03 0.03 0.13 0.23 0.33 0.31 0.43 0.74 1.04 0.80 0.59 0.50 0.60 0.28 0.17 0.04 0.10 0.20 0.15 0.11 0.15 0.21 0.23 0.25 0.31 0.34 0.29 0.35 0.23
0.00 0.00 0.00 0.02 0.03 0.04 0.14 0.29 0.33 0.31 0.43 0.41 0.91 0.84 0.19 0.10 0.16 0.10 0.10 0.03 0.08 0.12 0.06 0.06 0.07 0.12 0.18 0.22 0.20 0.12 0.08 0.08
0.00 0.00 0.00 0.00 0.00 0.00 0.01 0.01 0.10 0.20 0.21 0.19 0.16 0.27 0.15 0.05 0.01 0.00 0.01 0.01 0.00 0.01 0.03 0.03 0.03 0.03 0.03 0.04 0.05 0.03 0.01 0.00
0.00 0.00 0.00 0.00 0.00 0.00 0.01 0.01 0.00 0.01 0.01 0.06 0.11 0.06 0.04 0.02 0.01 0.00 0.00 0.00 0.00 0.00 0.00 0.00 0.00 0.00 0.01 0.02 0.02 0.03 0.03 0.03
0.00 0.00 0.00 0.00 0.00 0.00 0.00 0.00 0.01 0.01 0.01 0.00 0.01 0.02 0.02 0.02 0.00 0.00 0.00 0.00 0.00 0.00 0.00 0.00 0.00 0.00 0.00 0.00 0.01 0.01 0.02 0.03
0.00 0.00 0.00 0.00 0.00 0.00 0.00 0.00 0.00 0.00 0.00 0.00 0.00 0.00 0.00 0.00 0.00 0.00 0.00 0.00 0.00 0.00 0.00 0.00 0.00 0.00 0.00 0.00 0.00 0.00 0.00 0.00

GFSFLT1_prec_precacc6_141.txt.gz
Total_Precipitation_Accumulation
0.00 0.00 0.00 0.00 0.00 0.00 0.00 0.00 0.00 0.00 0.00 0.00 0.00 0.00 0.00 0.01 0.05 0.21 0.37 0.44 0.54 0.52 0.41 0.20 0.10 0.03 0.01 0.00 0.00 0.00 0.00 0.00
0.00 0.00 0.00 0.00 0.00 0.00 0.00 0.00 0.00 0.00 0.00 0.00 0.00 0.00 0.00 0.00 0.00 0.07 0.27 0.51 0.64 0.85 0.84 0.67 0.33 0.13 0.04 0.02 0.02 0.02 0.00 0.00
0.00 0.00 0.00 0.00 0.00 0.00 0.00 0.00 0.00 0.00 0.00 0.00 0.00 0.00 0.00 0.00 0.00 0.01 0.07 0.15 0.40 0.66 0.85 0.94 1.06 0.46 0.17 0.09 0.03 0.02 0.02 0.01
0.00 0.00 0.00 0.00 0.00 0.00 0.00 0.00 0.00 0.00 0.00 0.00 0.00 0.00 0.00 0.00 0.00 0.00 0.01 0.06 0.17 0.35 0.67 0.71 0.63 0.65 0.46 0.18 0.08 0.04 0.01 0.01
0.00 0.00 0.00 0.00 0.00 0.00 0.00 0.00 0.00 0.00 0.00 0.00 0.00 0.00 0.00 0.00 0.00 0.00 0.00 0.03 0.16 0.26 0.34 0.37 0.67 0.81 0.40 0.22 0.17 0.11 0.06 0.01
0.00 0.00 0.00 0.00 0.00 0.00 0.00 0.00 0.00 0.00 0.00 0.00 0.00 0.00 0.01 0.01 0.00 0.00 0.00 0.01 0.04 0.22 0.34 0.39 0.47 0.51 0.42 0.36 0.23 0.12 0.06 0.03
0.00 0.00 0.00 0.00 0.00 0.00 0.00 0.00 0.00 0.00 0.00 0.00 0.00 0.00 0.01 0.01 0.00 0.00 0.00 0.01 0.03 0.18 0.33 0.43 0.84 0.96 0.71 0.45 0.58 0.35 0.14 0.10
0.00 0.00 0.00 0.00 0.00 0.00 0.00 0.00 0.00 0.00 0.00 0.00 0.00 0.00 0.00 0.01 0.01 0.03 0.02 0.03 0.04 0.14 0.73 0.95 1.06 1.30 1.64 0.86 0.58 0.70 0.43 0.23
0.00 0.00 0.00 0.00 0.00 0.00 0.01 0.01 0.01 0.01 0.00 0.00 0.00 0.01 0.01 0.02 0.03 0.02 0.04 0.09 0.08 0.11 0.34 1.30 1.39 1.35 1.68 1.62 1.00 0.84 0.86 0.45
0.00 0.00 0.00 0.00 0.00 0.01 0.06 0.06 0.03 0.03 0.04 0.04 0.02 0.03 0.02 0.04 0.04 0.03 0.04 0.08 0.13 0.15 0.16 0.77 1.25 1.27 1.26 1.45 1.31 0.91 0.89 0.98
0.00 0.00 0.00 0.00 0.01 0.02 0.04 0.04 0.06 0.07 0.07 0.10 0.10 0.07 0.05 0.13 0.11 0.13 0.09 0.11 0.12 0.13 0.27 0.49 0.47 0.47 0.59 1.28 1.62 1.44 1.30 1.20
0.00 0.00 0.00 0.01 0.01 0.02 0.03 0.04 0.07 0.13 0.16 0.26 0.22 0.21 0.26 0.27 0.27 0.27 0.23 0.19 0.20 0.21 0.18 0.30 0.38 0.39 0.48 0.71 0.76 1.01 1.32 1.45
0.00 0.00 0.00 0.00 0.00 0.01 0.03 0.06 0.11 0.30 0.49 0.56 0.58 0.82 1.07 0.54 0.49 0.38 0.40 0.39 0.29 0.18 0.12 0.11 0.25 0.40 0.51 0.57 0.69 0.65 0.62 0.66
0.00 0.00 0.00 0.00 0.00 0.00 0.02 0.08 0.07 0.17 0.43 0.71 0.71 0.75 1.03 1.24 0.82 0.66 0.28 0.23 0.21 0.23 0.07 0.08 0.14 0.21 0.32 0.39 0.43 0.50 0.57 0.63
0.00 0.00 0.00 0.00 0.00 0.00 0.00 0.03 0.04 0.09 0.21 0.26 0.72 0.85 0.32 0.47 0.89 0.57 0.24 0.11 0.12 0.22 0.10 0.07 0.05 0.09 0.20 0.31 0.36 0.31 0.28 0.31
0.00 0.00 0.00 0.00 0.00 0.00 0.00 0.00 0.00 0.01 0.02 0.02 0.05 0.26 0.24 0.08 0.07 0.19 0.17 0.04 0.04 0.16 0.03 0.02 0.02 0.03 0.03 0.05 0.09 0.14 0.14 0.11
0.00 0.00 0.00 0.00 0.00 0.00 0.00 0.00 0.00 0.00 0.00 0.01 0.02 0.03 0.05 0.06 0.03 0.01 0.01 0.00 0.00 0.00 0.00 0.00 0.00 0.00 0.00 0.00 0.00 0.00 0.00 0.00
0.00 0.00 0.00 0.00 0.00 0.00 0.00 0.00 0.00 0.00 0.00 0.00 0.00 0.01 0.01 0.01 0.01 0.01 0.01 0.00 0.00 0.00 0.00 0.00 0.00 0.00 0.00 0.00 0.00 0.00 0.00 0.00
0.00 0.00 0.00 0.00 0.00 0.00 0.00 0.00 0.00 0.00 0.00 0.00 0.00 0.00 0.00 0.00 0.00 0.00 0.00 0.00 0.00 0.00 0.00 0.00 0.00 0.00 0.00 0.00 0.00 0.00 0.00 0.00

GFSFLT1_prec_precacc6_147.txt.gz
Total_Precipitation_Accumulation
0.00 0.00 0.00 0.00 0.00 0.00 0.00 0.00 0.00 0.00 0.00 0.00 0.00 0.00 0.00 0.00 0.00 0.00 0.00 0.00 0.00 0.01 0.04 0.12 0.23 0.27 0.23 0.22 0.18 0.12 0.03 0.00
0.00 0.00 0.00 0.00 0.00 0.00 0.00 0.00 0.00 0.00 0.00 0.00 0.00 0.00 0.00 0.00 0.00 0.00 0.00 0.00 0.00 0.00 0.02 0.05 0.12 0.21 0.21 0.24 0.25 0.23 0.18 0.09
0.00 0.00 0.00 0.00 0.00 0.00 0.00 0.00 0.00 0.00 0.00 0.00 0.00 0.00 0.00 0.00 0.00 0.00 0.00 0.00 0.00 0.00 0.01 0.02 0.11 0.40 0.40 0.31 0.37 0.38 0.60 0.72
0.00 0.00 0.00 0.00 0.00 0.00 0.00 0.00 0.00 0.00 0.00 0.00 0.00 0.00 0.00 0.00 0.00 0.00 0.00 0.00 0.00 0.00 0.00 0.01 0.02 0.16 0.48 0.81 0.98 1.00 0.89 0.88
0.00 0.00 0.00 0.00 0.00 0.00 0.00 0.00 0.00 0.00 0.00 0.00 0.00 0.00 0.01 0.01 0.01 0.01 0.00 0.00 0.00 0.00 0.00 0.00 0.00 0.03 0.16 0.48 0.39 0.63 0.89 1.08
0.00 0.00 0.00 0.00 0.00 0.00 0.00 0.00 0.00 0.00 0.00 0.00 0.00 0.01 0.01 0.01 0.01 0.02 0.01 0.00 0.00 0.01 0.01 0.01 0.01 0.02 0.10 0.17 0.13 0.13 0.22 0.32
0.00 0.00 0.00 0.00 0.00 0.00 0.00 0.00 0.00 0.00 0.00 0.00 0.01 0.01 0.01 0.01 0.02 0.02 0.01 0.01 0.01 0.01 0.01 0.01 0.01 0.01 0.03 0.08 0.19 0.33 0.32 0.24
0.00 0.00 0.00 0.00 0.00 0.00 0.00 0.00 0.00 0.00 0.00 0.00 0.01 0.01 0.01 0.01 0.02 0.01 0.01 0.00 0.00 0.01 0.00 0.01 0.01 0.02 0.02 0.08 0.20 0.39 0.89 0.67
0.00 0.00 0.00 0.00 0.00 0.00 0.00 0.00 0.00 0.00 0.00 0.00 0.01 0.01 0.02 0.02 0.01 0.01 0.01 0.01 0.01 0.01 0.01 0.01 0.01 0.02 0.02 0.02 0.14 0.24 0.69 1.27
0.00 0.00 0.00 0.00 0.00 0.00 0.00 0.00 0.00 0.00 0.00 0.00 0.01 0.02 0.02 0.02 0.02 0.01 0.01 0.01 0.01 0.03 0.05 0.05 0.05 0.04 0.04 0.03 0.06 0.17 0.25 0.52
0.00 0.00 0.00 0.00 0.00 0.00 0.00 0.00 0.00 0.00 0.00 0.00 0.03 0.04 0.03 0.03 0.03 0.02 0.02 0.03 0.03 0.02 0.11 0.12 0.10 0.10 0.07 0.11 0.06 0.05 0.07 0.14
0.00 0.00 0.00 0.00 0.00 0.00 0.00 0.00 0.00 0.00 0.02 0.02 0.05 0.06 0.05 0.05 0.04 0.04 0.08 0.11 0.12 0.09 0.09 0.11 0.18 0.14 0.18 0.13 0.12 0.11 0.05 0.05
0.00 0.00 0.00 0.00 0.00 0.00 0.00 0.00 0.00 0.00 0.02 0.05 0.04 0.10 0.08 0.10 0.16 0.18 0.22 0.27 0.28 0.21 0.22 0.23 0.23 0.24 0.23 0.22 0.19 0.22 0.18 0.18
0.00 0.00 0.00 0.00 0.00 0.00 0.00 0.00 0.00 0.00 0.00 0.01 0.00 0.03 0.09 0.19 0.35 0.38 0.58 0.56 0.66 0.74 0.66 0.51 0.40 0.35 0.28 0.20 0.15 0.14 0.15 0.23
0.00 0.00 0.00 0.00 0.00 0.00 0.00 0.00 0.00 0.00 0.00 0.00 0.00 0.01 0.01 0.05 0.15 0.20 0.37 0.47 0.68 1.00 1.29 1.33 1.09 0.77 0.68 0.44 0.24 0.37 0.29 0.35
0.00 0.00 0.00 0.00 0.00 0.00 0.00 0.00 0.00 0.00 0.00 0.00 0.00 0.00 0.01 0.00 0.01 0.05 0.06 0.12 0.27 0.72 0.89 0.96 0.79 0.58 0.49 0.19 0.15 0.25 0.40 0.20
0.00 0.00 0.00 0.00 0.00 0.00 0.00 0.00 0.00 0.00 0.00 0.00 0.00 0.00 0.00 0.01 0.01 0.02 0.01 0.00 0.02 0.07 0.05 0.09 0.26 0.20 0.11 0.04 0.02 0.04 0.04 0.02
0.00 0.00 0.00 0.00 0.00 0.00 0.00 0.00 0.00 0.00 0.00 0.00 0.00 0.00 0.00 0.00 0.00 0.00 0.01 0.01 0.00 0.00 0.00 0.00 0.00 0.01 0.01 0.02 0.00 0.00 0.00 0.00
0.00 0.00 0.00 0.00 0.00 0.00 0.00 0.00 0.00 0.00 0.00 0.00 0.00 0.00 0.00 0.00 0.00 0.00 0.00 0.00 0.00 0.00 0.00 0.00 0.00 0.00 0.00 0.00 0.00 0.00 0.00 0.00